TimeEDT,TemperatureF,Dew PointF,Humidity,Sea Level PressureIn,VisibilityMPH,Wind Direction,Wind SpeedMPH,Gust SpeedMPH,PrecipitationIn,Events,Conditions,WindDirDegrees,DateUTC
12:15 AM,34.7,34.7,100,30.33,2.0,Calm,Calm,-,N/A,Rain,Rain,0,2013-03-18 04:15:00
12:35 AM,34.7,34.7,100,30.33,1.8,Calm,Calm,-,N/A,Rain,Light Rain,0,2013-03-18 04:35:00
12:55 AM,34.7,34.7,100,30.33,1.8,Calm,Calm,-,0.01,Rain,Light Rain,0,2013-03-18 04:55:00
1:15 AM,34.7,34.7,100,30.32,1.8,Calm,Calm,-,N/A,Rain,Light Rain,0,2013-03-18 05:15:00
1:35 AM,34.7,34.7,100,30.32,2.5,Calm,Calm,-,N/A,Rain,Light Rain,0,2013-03-18 05:35:00
2:15 AM,34.7,34.7,100,30.32,3.0,Calm,Calm,-,0.01,Rain,Rain,0,2013-03-18 06:15:00
2:35 AM,34.7,34.7,100,30.32,2.5,Calm,Calm,-,0.01,Rain,Light Rain,0,2013-03-18 06:35:00
2:55 AM,34.7,34.7,100,30.32,2.5,Calm,Calm,-,0.02,Snow,Light Snow,0,2013-03-18 06:55:00
3:15 AM,34.7,34.5,99,30.32,3.0,ENE,3.5,-,N/A,Snow,Light Snow,60,2013-03-18 07:15:00
3:35 AM,34.0,33.1,96,30.32,2.5,ENE,4.6,-,0.01,Snow,Light Snow,60,2013-03-18 07:35:00
3:55 AM,33.8,32.9,96,30.32,2.0,ENE,4.6,-,0.01,Snow,Light Snow,60,2013-03-18 07:55:00
4:15 AM,33.4,32.9,98,30.31,3.0,ENE,3.5,-,N/A,Snow,Light Snow,60,2013-03-18 08:15:00
4:35 AM,33.4,32.9,98,30.31,3.0,ENE,5.8,-,N/A,Snow,Light Snow,70,2013-03-18 08:35:00
4:55 AM,33.3,32.9,99,30.31,2.5,ENE,5.8,-,N/A,Snow,Light Snow,70,2013-03-18 08:55:00
5:15 AM,33.3,32.9,99,30.32,1.5,Calm,Calm,-,N/A,Snow,Light Snow,0,2013-03-18 09:15:00
5:35 AM,33.3,32.9,99,30.33,1.5,Calm,Calm,-,N/A,Snow,Light Snow,0,2013-03-18 09:35:00
5:55 AM,33.1,32.9,99,30.33,1.8,Calm,Calm,-,N/A,Snow,Light Snow,0,2013-03-18 09:55:00
6:15 AM,33.1,32.9,99,30.35,2.5,ENE,4.6,-,N/A,Snow,Light Snow,60,2013-03-18 10:15:00
6:35 AM,33.1,32.9,99,30.35,1.8,East,6.9,-,N/A,Snow,Light Snow,80,2013-03-18 10:35:00
7:15 AM,33.1,32.5,98,30.35,2.0,East,8.1,-,0.01,Snow,Light Snow,90,2013-03-18 11:15:00
7:35 AM,32.9,32.4,98,30.36,1.2,East,5.8,-,0.01,Snow,Light Snow,80,2013-03-18 11:35:00
7:55 AM,33.1,32.4,97,30.36,2.0,East,11.5,-,0.01,Snow,Light Snow,80,2013-03-18 11:55:00
8:15 AM,32.9,32.0,96,30.36,3.0,East,4.6,-,N/A,Snow,Light Snow,80,2013-03-18 12:15:00
8:35 AM,32.9,32.0,96,30.35,2.5,ENE,6.9,-,N/A,Snow,Light Snow,70,2013-03-18 12:35:00
8:55 AM,32.9,32.0,96,30.35,3.0,ENE,6.9,-,N/A,Snow,Light Snow,70,2013-03-18 12:55:00
9:15 AM,32.9,32.0,96,30.34,4.0,ENE,6.9,-,N/A,Snow,Light Snow,70,2013-03-18 13:15:00
9:35 AM,32.9,32.0,96,30.33,7.0,East,4.6,-,N/A,,Overcast,80,2013-03-18 13:35:00
9:55 AM,32.9,32.0,96,30.33,4.0,ENE,3.5,-,N/A,,Overcast,60,2013-03-18 13:55:00
10:15 AM,33.3,32.0,95,30.32,7.0,NE,4.6,-,N/A,,Overcast,50,2013-03-18 14:15:00
10:35 AM,33.3,32.0,95,30.31,4.0,Calm,Calm,-,N/A,,Overcast,0,2013-03-18 14:35:00
10:55 AM,33.4,32.4,96,30.31,3.0,ENE,4.6,-,N/A,,Overcast,60,2013-03-18 14:55:00
11:15 AM,33.4,32.5,96,30.28,1.8,ENE,4.6,-,N/A,,Overcast,60,2013-03-18 15:15:00
11:35 AM,33.6,32.9,97,30.26,1.5,East,6.9,-,N/A,,Overcast,80,2013-03-18 15:35:00
11:55 AM,34.0,33.4,98,30.25,2.0,East,8.1,-,N/A,,Overcast,80,2013-03-18 15:55:00
12:15 PM,34.3,33.6,97,30.25,2.5,ENE,4.6,-,N/A,,Overcast,60,2013-03-18 16:15:00
12:35 PM,34.7,34.0,97,30.25,2.5,NE,3.5,-,N/A,,Overcast,50,2013-03-18 16:35:00
12:55 PM,34.7,34.0,97,30.24,1.8,NE,4.6,-,0.03,,Overcast,40,2013-03-18 16:55:00
1:15 PM,34.7,34.2,98,30.23,1.5,Calm,Calm,-,0.02,,Overcast,0,2013-03-18 17:15:00
1:35 PM,34.7,34.2,98,30.22,1.5,Calm,Calm,-,0.04,Rain,Light Rain,0,2013-03-18 17:35:00
1:55 PM,34.7,34.3,99,30.20,1.2,ENE,4.6,-,0.06,,Drizzle,60,2013-03-18 17:55:00
2:15 PM,34.9,34.7,99,30.18,1.2,ENE,3.5,-,0.01,Rain,Light Rain,70,2013-03-18 18:15:00
2:35 PM,35.1,34.9,99,30.17,1.2,Calm,Calm,-,0.03,Rain,Rain,0,2013-03-18 18:35:00
2:55 PM,35.4,35.1,99,30.15,1.5,Calm,Calm,-,0.05,Rain,Rain,0,2013-03-18 18:55:00
3:15 PM,35.6,35.6,100,30.14,1.5,Calm,Calm,-,0.01,Rain,Light Rain,0,2013-03-18 19:15:00
3:35 PM,36.0,35.8,99,30.12,2.0,Calm,Calm,-,0.01,Snow,Light Snow,0,2013-03-18 19:35:00
3:55 PM,35.8,35.6,99,30.13,2.0,Calm,Calm,-,0.01,Rain,Light Rain,0,2013-03-18 19:55:00
4:15 PM,36.1,36.0,99,30.11,1.2,Calm,Calm,-,N/A,Rain,Rain,0,2013-03-18 20:15:00
4:35 PM,36.1,36.0,99,30.11,1.0,WNW,3.5,-,0.01,,Drizzle,300,2013-03-18 20:35:00
4:55 PM,36.0,36.0,100,30.11,1.0,WNW,4.6,-,0.02,Rain,Heavy Rain,300,2013-03-18 20:55:00
5:15 PM,36.3,36.3,100,30.10,1.0,NW,3.5,-,N/A,Rain,Rain,310,2013-03-18 21:15:00
5:35 PM,36.3,36.3,100,30.09,2.0,WNW,5.8,-,0.01,,Drizzle,300,2013-03-18 21:35:00
5:55 PM,35.6,35.6,100,30.08,1.5,NNW,6.9,-,0.01,,Drizzle,330,2013-03-18 21:55:00
6:15 PM,35.6,35.6,100,30.08,1.5,WNW,5.8,-,0.01,Rain,Rain,300,2013-03-18 22:15:00
6:35 PM,35.4,35.2,99,30.06,1.8,NNW,3.5,-,0.03,Rain,Rain,330,2013-03-18 22:35:00
6:55 PM,35.2,35.1,99,30.07,3.0,WNW,4.6,-,0.04,Rain,Rain,290,2013-03-18 22:55:00
7:15 PM,35.1,34.9,99,30.03,1.8,Calm,Calm,-,0.04,,Overcast,0,2013-03-18 23:15:00
7:35 PM,34.7,34.7,100,30.04,4.0,Calm,Calm,-,0.07,Rain,Rain,0,2013-03-18 23:35:00
8:15 PM,34.9,34.7,99,30.02,10.0,Calm,Calm,-,0.01,,Drizzle,0,2013-03-19 00:15:00
8:35 PM,34.7,34.7,100,30.01,4.0,Calm,Calm,-,0.02,Rain,Light Rain,0,2013-03-19 00:35:00
8:55 PM,34.7,34.7,100,30.01,10.0,WNW,3.5,-,0.02,,Light Drizzle,300,2013-03-19 00:55:00
9:15 PM,34.7,34.7,100,30.01,10.0,WNW,4.6,-,N/A,,Overcast,300,2013-03-19 01:15:00
9:35 PM,34.7,34.5,99,30.01,10.0,WNW,5.8,-,N/A,Rain,Rain,300,2013-03-19 01:35:00
9:55 PM,34.7,34.3,99,29.99,3.0,NW,3.5,-,0.01,Rain,Rain,310,2013-03-19 01:55:00
10:15 PM,34.7,34.3,99,29.97,5.0,Calm,Calm,-,N/A,Rain,Light Rain,0,2013-03-19 02:15:00
10:35 PM,34.7,34.3,99,29.95,10.0,Calm,Calm,-,0.01,Rain,Rain,0,2013-03-19 02:35:00
10:55 PM,34.7,34.7,100,29.95,10.0,Calm,Calm,-,0.01,,Overcast,0,2013-03-19 02:55:00
11:15 PM,34.7,34.7,100,29.95,10.0,WNW,3.5,-,N/A,,Light Drizzle,290,2013-03-19 03:15:00
11:55 PM,34.7,34.7,100,29.94,10.0,West,3.5,-,N/A,,Overcast,280,2013-03-19 03:55:00